Вернуться в каталог

STARLINK-2478

АктивенСвязьVLEO
NORAD 48135·PAYLOAD·🇺🇸 United States

Запущен Apr 7, 2021 с Cape Canaveral Space Force Station

Loading…

Ближайшие Пролёты (ближайшие 24 часа)

TLE

СвежийSource: CelesTrak SupGP

Эпоха: Sep 14, 2026, 21:56 UTC

1 48135C 21027AV  26257.91437500 -.00025522  00000+0 -82021-3 0  2574
2 48135  53.1596   7.3543 0000916  89.4364 192.5575 15.31734356    17

Отслеживайте STARLINK-2478 в реальном времени с AllMySat

Download on the App Store